Other Public Products
Issued by NWS Grand Forks, ND

Home | Current Version | Previous Version | Text Only | Print | Product List | Glossary On
Versions: 1 2 3 4 5 6 7 8 9 10 11 12 13 14 15 16 17 18 19 20 21 22 23 24 25 26 27 28 29 30 31 32 33 34 35 36 37 38 39 40 41 42 43 44 45 46 47 48 49 50
749
FPUS83 KFGF 261231
OPUFGF
PRAIRIE TO PINES WEATHER ROUNDUP
NATIONAL WEATHER SERVICE EASTERN NORTH DAKOTA/GRAND FORKS ND
700 AM CDT MON SEP 26 2016

 **SATELLITE DATA USED TO AUGMENT SKY COVER AT AUTOMATED STATIONS**
 *****  WEATHER ACROSS EASTERN NORTH DAKOTA  *****

CITY           SKY/WX    TMP DP  RH WIND       PRES   REMARKS
GRAND FORKS    PTCLDY    48  37  65 NW15      29.94S
6HR MIN TEMP:  48; 6HR MAX TEMP:  53;

GRAND FORKS AF CLEAR     48  37  64 NW13      29.95S
GRAND CITY NWS NOT AVBL
BUXTON           N/A     55  48  77 W10         N/A
DEVILS LAKE    CLEAR     45  37  73 W13       30.03S
6HR MIN TEMP:  45; 6HR MAX TEMP:  50;

FARGO          CLEAR     47  36  65 W12       29.98R
6HR MIN TEMP:  47; 6HR MAX TEMP:  54;

WAHPETON ARPT  SUNNY     45  36  70 W14       30.01S
$$

 *****  WEATHER ACROSS CENTRAL AND WESTERN NORTH DAKOTA  *****

CITY           SKY/WX    TMP DP  RH WIND       PRES   REMARKS
JAMESTOWN      CLEAR     46  36  68 W13       30.06S
6HR MIN TEMP:  44; 6HR MAX TEMP:  48;

BISMARCK       CLEAR     41  34  76 W8        30.17S
6HR MIN TEMP:  39; 6HR MAX TEMP:  46;

MINOT          CLEAR     46  34  62 W14       30.11S
6HR MIN TEMP:  44; 6HR MAX TEMP:  50;

MINOT AFB      CLEAR     44  34  69 W15       30.10S
6HR MIN TEMP:  43; 6HR MAX TEMP:  47;

GARRISON         N/A     41  37  86 W10       30.14S
6HR MIN TEMP:  41; 6HR MAX TEMP:  46;

WILLISTON      CLEAR     40  33  76 S5        30.20S
6HR MIN TEMP:  37; 6HR MAX TEMP:  45;

DICKINSON      CLEAR     36  34  92 W7        30.19S
6HR MIN TEMP:  34; 6HR MAX TEMP:  40;

HETTINGER      CLEAR     37  34  89 W6        30.22F
6HR MIN TEMP:  37; 6HR MAX TEMP:  40;

$$

 *****  OTHER OBSERVATIONS NORTHEAST NORTH DAKOTA  *****

CITY           SKY/WX    TMP DP  RH WIND       PRES   REMARKS
WALHALLA       FAIR      46  43  87 W14G23    29.93S
LANGDON        FAIR      41  37  87 W14       29.97S
CAVALIER       FAIR      46  37  71 W14       29.92S
GRAFTON        FAIR      48  39  71 W14G21    29.94S
CANDO          FAIR      39  37  93 W9        30.04F
FORT TOTTEN      N/A     47  38  72 NW7       29.95S
ROLLA          FAIR      46  32  57 NW16G23   30.03R
RUGBY          FAIR      37  36  93 W12       30.06S
 ***** THE ABOVE OBSERVATIONS ARE NON NWS ARE NOT QUALITY
        CONTROLLED AND MAY MIS-REPORT RAIN FOR SNOW...
$$

 *****  OTHER OBSERVATIONS SOUTHEAST NORTH DAKOTA *****

CITY           SKY/WX    TMP DP  RH WIND       PRES   REMARKS
COOPERSTOWN    FAIR      45  37  76 W13       30.02S
VALLEY CITY    FAIR      43  37  81 W17       30.05S
OAKES          NOT AVBL
GWINNER        FAIR      45  37  76 W14       30.06S
SHEYENNE NWR     N/A     44  36  73 W7        29.95
BUFFALO          N/A     46  32  58 W10         N/A
WYNDMERE         N/A     46  37  71 W12         N/A
 ***** THE ABOVE OBSERVATIONS ARE NON NWS ARE NOT QUALITY
       CONTROLLED AND MAY MIS-REPORT RAIN FOR SNOW...
$$

  *****  WEATHER ACROSS NORTHERN MINNESOTA  *****

CITY           SKY/WX    TMP DP  RH WIND       PRES   REMARKS
FLAG ISLAND    CLOUDY    48  45  87 W24G35    29.70S
WARROAD        CLOUDY    48  45  87 W18G26    29.77S
ROSEAU         MOCLDY    48  43  81 W12G18    29.80S
HALLOCK        CLEAR     48  39  71 W15G21    29.89R
THF RVR FALLS  MOCLDY    47  39  74 W17       29.89R
6HR MIN TEMP:  47; 6HR MAX TEMP:  51;

HALSTAD          N/A     47  39  75 NW14        N/A
FOSSTON        PTCLDY    45  37  76 W16       29.90R
BAUDETTE       CLOUDY    47  43  86 W16G25    29.73S
6HR MIN TEMP:  47; 6HR MAX TEMP:  50; 6HR PCP:  0.28;

WASKISH        PTCLDY    50  43  76 W20G32    29.77S
CROOKSTON      MOCLDY    46  39  76 NW16      29.93R
$$
  *****  WEATHER ACROSS CENTRAL AND WEST MINNESOTA  *****

CITY           SKY/WX    TMP DP  RH WIND       PRES   REMARKS
BEMIDJI        MOCLDY    45  38  76 W21       29.84S
PARK RAPIDS    PTCLDY    46  37  71 W15       29.88S
6HR MIN TEMP:  46; 6HR MAX TEMP:  50;

WADENA         CLEAR     46  37  71 W13       29.91F
DETROIT LAKES  CLEAR     46  37  71 NW16G24   29.94S
MOORHEAD       CLEAR     46  37  71 W15       29.99R
FERGUS FALLS   CLEAR     43  37  81 W14       30.01R
ELBOW LAKE     FAIR      45  37  72 NW15G22   30.00S
MORRIS MN      CLEAR     46  37  71 W15       30.00S
STAPLES        CLEAR     45  37  76 W10       29.91S
WHEATON        CLEAR     48  39  71 W9G16     30.05S
$$
  *****  WEATHER ELSEWHERE ACROSS MINNESOTA  *****

CITY           SKY/WX    TMP DP  RH WIND       PRES   REMARKS
DULUTH         CLOUDY    49  46  90 W20G31    29.70S
6HR MIN TEMP:  49; 6HR MAX TEMP:  50; 6HR PCP:  0.12;

INTRNTL FALLS  LGT RAIN  49  46  90 W15G28    29.66S
6HR MIN TEMP:  49; 6HR MAX TEMP:  51; 6HR PCP:  0.23;

ELY            DRIZZLE   48  46  93 W13G24    29.60S
CLOQUET        MOCLDY    48  43  81 W18G25    29.74S
BRAINERD       PTCLDY    48  39  71 W13G25    29.88R
6HR MIN TEMP:  48; 6HR MAX TEMP:  51; 6HR PCP: TRACE;

HIBBING        LGT RAIN  47  44  90 W14G22    29.71R
6HR MIN TEMP:  47; 6HR MAX TEMP:  49; 6HR PCP:  0.17;

ALEXANDRIA     CLEAR     46  38  73 W15G23    29.98S
6HR MIN TEMP:  46; 6HR MAX TEMP:  51;

SAINT CLOUD    CLEAR     49  39  68 W15G25    29.93R
6HR MIN TEMP:  48; 6HR MAX TEMP:  52; 6HR PCP: TRACE;

MINNEAPOLIS    PTCLDY    51  40  65 W15       29.94R
6HR MIN TEMP:  51; 6HR MAX TEMP:  56;

$$

  *****  WEATHER ACROSS SOUTH DAKOTA  *****

CITY           SKY/WX    TMP DP  RH WIND       PRES   REMARKS
SIOUX FALLS    PTCLDY    43  36  76 W6        30.15S
6HR MIN TEMP:  43; 6HR MAX TEMP:  48;

BROOKINGS      CLEAR     43  36  76 W12       30.12S
WATERTOWN      CLEAR     48  36  63 W13       30.10S
6HR MIN TEMP:  47; 6HR MAX TEMP:  52;

HURON          CLEAR     40  35  83 W7        30.16S
6HR MIN TEMP:  40; 6HR MAX TEMP:  47;

SISSETON         N/A     50  35  56 NW15      30.05R
ABERDEEN       CLEAR     43  35  73 W7        30.14R
6HR MIN TEMP:  40; 6HR MAX TEMP:  44;

MITCHELL       CLEAR     44  37  76 W9        30.19R
PIERRE         CLEAR     43  35  73 W9        30.20S
6HR MIN TEMP:  42; 6HR MAX TEMP:  51;

MOBRIDGE       CLEAR     45  38  76 W10       30.17R
RAPID CITY     CLEAR     45  33  63 SW3       30.27S
6HR MIN TEMP:  38; 6HR MAX TEMP:  46;

$$

  *****  SOME WEATHER IN NEARBY STATES *****

CITY           SKY/WX    TMP DP  RH WIND       PRES   REMARKS
GLASGOW MT     CLEAR     40  37  89 NW16      30.22S
6HR MIN TEMP:  38; 6HR MAX TEMP:  49;

GREAT FALLS MT CLOUDY    47  40  76 SW8       30.32S
6HR MIN TEMP:  45; 6HR MAX TEMP:  50;

CHEYENNE WY    CLOUDY    40  32  73 W9        30.41S
6HR MIN TEMP:  38; 6HR MAX TEMP:  45;

SCOTTSBLUFF NE CLEAR     38  34  85 N3        30.35F
6HR MIN TEMP:  37; 6HR MAX TEMP:  43;

OMAHA NE       PTCLDY    50  38  63 CALM      30.24R
6HR MIN TEMP:  49; 6HR MAX TEMP:  54;

DES MOINES IA  CLEAR     50  41  71 W8        30.15R
6HR MIN TEMP:  50; 6HR MAX TEMP:  57;

DAVENPORT IA   CLEAR     51  46  83 W9        30.08R
6HR MIN TEMP:  51; 6HR MAX TEMP:  59;

CHICAGO IL     CLOUDY    59  50  72 W13       29.99R
6HR MIN TEMP:  59; 6HR MAX TEMP:  63; 6HR PCP: TRACE;

EAU CLAIRE WI  CLOUDY    50  44  80 W15       29.87S
6HR MIN TEMP:  50; 6HR MAX TEMP:  54;

LA CROSSE WI   PTCLDY    54  43  66 W14       29.95S
6HR MIN TEMP:  54; 6HR MAX TEMP:  59;

$$

  *****  SOME NATIONAL WEATHER *****

CITY           SKY/WX    TMP DP  RH WIND       PRES   REMARKS
LA GUARDIA NY  MOSUNNY   61  47  59 NE8       30.20R
6HR MIN TEMP:  57; 6HR MAX TEMP:  62;                              C1F1C2F2C3F3C4F4C5F5C6F6C7F7C8F8C9F9CaFaCbFbCcFcCdFdCe!



USA.gov is the U.S. government's official web portal to all federal, state and local government web resources and services.